STARLINK-32825

Last updated on Mon Feb 24 2025 00:02:04 GMT+0000 (Coordinated Universal Time)

1 62825U 25018V 25053.99764841 .00001214 00000+0 29867-4 0 9995 2 62825 53.1609 279.7632 0001226 102.8518 257.2628 15.49318637 5881
UTC large
Height (km)
Speed (km/s)
/
Latitude / Longitude
Inclination (degrees)
Orbital Period (minutes)
Azimuth
Elevation
Range (km)
Doppler Factor

Next 0 passes for location: London (51.5072 / 0.1276)

Sorry there are no passes over London.